Wind_Speed
19 19 20 20 20 20 21 21 21 21 21 21 21 20 19 18 17 16 16 15 14 14 13 12 11 10 10 9 9 8 8 8 8 8 8 8 8 9 9 10 11 11 12
21 21 21 21 22 22 22 22 22 22 22 22 22 21 21 20 20 19 18 17 16 15 15 14 13 13 12 11 11 11 10 10 10 9 9 9 9 10 11 11 12 12 13
23 23 23 23 23 23 23 23 24 24 24 24 23 23 22 22 21 21 20 19 18 17 17 16 15 15 14 14 13 13 12 12 11 11 10 10 11 11 12 12 13 13 14
25 25 25 25 25 25 25 24 24 25 25 25 25 25 24 24 23 22 21 21 20 19 18 18 17 17 16 16 15 15 14 14 13 13 12 12 12 12 12 13 14 14 14
28 28 28 27 27 27 27 26 26 26 26 27 27 26 26 25 25 24 24 23 22 21 20 20 19 18 18 17 17 16 16 16 15 14 14 13 13 13 13 14 14 15 15
30 30 30 30 30 30 29 29 28 28 28 29 29 28 28 27 26 26 25 24 24 23 22 22 21 20 19 19 18 18 17 17 17 17 16 16 15 15 15 15 16 16 16
33 33 33 33 33 33 32 32 31 30 30 30 30 30 30 29 29 28 27 26 25 25 24 24 23 22 21 21 20 19 19 19 19 18 18 17 17 16 16 17 17 17 17
36 36 36 36 36 36 36 35 34 33 33 33 33 32 31 31 30 30 29 28 28 27 26 25 25 24 23 22 22 21 21 21 20 20 19 19 19 18 18 18 18 19 19
38 39 39 39 39 39 39 39 38 37 36 35 35 35 34 33 33 32 31 31 30 29 28 28 27 26 25 24 24 23 23 23 22 22 21 21 20 20 20 20 20 20 20
41 41 41 42 42 42 42 42 41 40 39 38 38 37 36 36 35 34 34 33 32 31 31 30 29 28 27 26 26 26 25 25 25 24 23 22 22 22 22 22 21 22 22
43 43 44 44 44 44 44 44 44 43 42 41 41 40 39 39 38 37 36 35 35 34 33 32 31 30 30 29 28 27 27 27 27 26 25 24 24 24 23 23 23 23 23
43 44 45 46 46 46 46 46 46 46 45 44 43 42 42 41 40 39 39 38 37 36 35 34 33 33 32 31 30 29 29 28 28 28 27 26 26 26 25 24 24 25 25
44 45 46 47 48 48 48 48 48 48 47 47 46 46 45 44 43 42 42 40 40 39 38 36 35 35 34 32 32 31 30 30 29 29 29 28 28 28 27 26 26 26 27
44 45 46 47 49 50 50 50 49 49 49 49 48 48 47 46 46 45 44 43 42 42 41 39 38 37 36 35 34 33 32 31 31 30 30 30 29 29 29 28 27 27 28
44 45 46 47 48 50 52 52 51 51 51 50 50 50 49 48 48 48 47 45 45 44 43 42 40 40 38 37 36 35 34 34 33 32 32 32 31 31 30 29 29 29 29
43 44 46 47 48 50 51 53 52 52 52 52 52 52 51 51 50 50 49 48 47 46 45 44 43 42 41 40 39 38 36 36 35 35 34 34 33 32 32 32 31 31 30
42 44 46 47 48 50 51 53 53 53 54 53 53 53 53 52 52 52 51 50 49 49 48 47 46 45 44 43 42 40 39 38 38 37 36 36 35 34 34 34 33 33 32
42 43 45 46 47 49 50 52 53 54 54 53 53 54 54 54 54 53 52 52 52 51 50 49 48 47 46 46 44 42 41 41 40 39 39 37 37 36 35 34 34 34 33
41 41 42 44 46 47 49 51 52 54 54 55 55 56 56 56 55 54 54 53 53 53 52 51 51 50 49 47 47 45 44 43 42 40 40 39 38 38 37 36 36 35 34
38 38 39 41 43 45 47 49 52 53 54 56 56 56 57 57 57 56 55 54 54 54 54 53 53 52 51 50 49 48 46 45 44 42 41 40 39 39 38 37 36 36 36
36 36 37 38 41 44 46 48 50 52 53 55 56 57 58 58 58 57 57 56 56 55 55 54 54 54 53 52 51 50 49 48 46 44 43 41 41 41 40 38 38 38 38
34 35 37 39 40 43 45 47 49 49 50 52 53 55 57 57 57 58 57 56 56 56 56 56 56 55 55 54 53 52 51 49 48 46 45 43 42 42 41 39 38 39 39
32 34 37 38 39 41 42 44 46 47 49 50 52 52 53 53 54 56 57 57 57 57 57 56 56 57 56 56 55 53 52 51 49 48 46 44 43 42 41 40 40 40 39
31 33 35 37 37 38 39 42 44 45 46 48 49 49 50 52 53 55 55 57 56 55 55 56 56 56 56 56 56 55 54 52 51 50 48 46 44 43 42 42 41 41 40
31 31 32 35 36 37 38 39 42 42 44 45 46 47 48 49 50 52 53 55 55 55 54 55 55 55 55 56 57 56 54 53 52 51 49 48 46 45 43 42 42 41 41
29 31 32 33 35 37 38 38 40 42 43 44 45 46 47 47 47 48 51 53 54 54 53 53 54 54 54 55 56 56 55 53 52 51 49 49 48 46 44 43 42 41 42
Wind_Direction
247 246 244 242 241 240 241 240 240 239 238 238 237 236 237 237 237 238 239 239 239 240 242 244 248 252 257 261 264 269 274 277 282 286 291 296 301 303 304 306 308 310 311
249 248 246 244 242 241 241 241 241 240 240 240 240 239 239 239 240 240 242 242 243 244 245 247 250 254 258 261 262 265 270 273 275 279 285 292 296 299 301 302 305 306 307
249 248 247 246 245 243 242 242 242 242 242 242 242 242 241 241 241 242 243 244 246 247 248 250 251 254 258 261 262 264 267 269 271 275 280 286 292 296 298 300 302 303 304
249 248 248 247 246 244 244 243 243 243 242 242 243 243 243 243 243 244 244 246 248 249 250 252 253 255 258 260 262 264 265 266 269 272 275 280 287 292 296 298 300 303 304
249 249 248 248 248 247 245 245 245 245 244 243 243 243 244 244 244 245 246 247 248 251 252 253 255 257 258 259 262 264 265 266 268 269 272 276 282 288 293 296 298 301 303
251 250 249 249 249 249 248 247 246 246 246 245 245 245 246 246 246 246 247 248 249 251 252 254 256 259 260 260 262 264 265 266 268 269 271 273 278 283 289 294 296 298 300
251 250 250 250 249 249 249 249 247 247 247 247 247 246 247 248 248 248 248 248 250 252 253 254 256 259 260 261 262 263 264 264 266 268 270 272 276 280 285 290 294 296 298
252 251 250 249 249 249 249 249 249 248 247 247 248 247 248 249 250 249 248 248 250 253 254 255 257 259 260 261 262 262 263 264 266 267 268 270 273 278 283 287 291 294 297
253 252 251 250 249 249 248 248 249 249 248 247 248 248 248 249 250 250 250 250 250 252 254 255 257 258 260 260 261 262 263 263 265 265 266 267 271 275 280 284 289 292 295
254 253 252 251 250 250 249 248 248 248 248 248 248 248 249 249 249 250 251 252 251 252 253 255 257 259 260 260 260 261 262 263 264 264 265 266 269 273 277 281 286 290 294
256 255 254 252 252 251 250 248 247 247 247 248 248 248 248 249 250 250 251 251 252 253 254 254 256 259 260 260 260 261 261 262 263 263 264 267 269 272 275 279 283 288 291
258 256 255 253 251 250 250 248 247 247 246 247 248 248 248 249 250 251 251 251 253 253 254 255 255 257 259 260 261 260 261 262 262 263 264 267 268 270 273 276 280 285 289
260 258 256 254 252 250 249 248 247 247 247 247 248 248 248 249 250 251 251 252 253 253 254 255 255 257 257 259 261 261 262 263 262 262 264 266 268 269 271 275 279 283 286
261 260 258 256 253 250 249 248 247 246 246 247 247 249 249 249 249 250 251 252 252 253 254 255 256 257 257 258 259 259 260 263 262 262 264 266 268 270 270 273 277 281 284
262 260 258 257 255 250 248 248 247 247 246 247 247 248 249 249 249 250 251 251 252 253 254 254 255 256 257 258 259 260 261 262 262 262 264 266 267 270 270 272 276 279 282
263 260 259 258 255 251 248 247 247 246 245 246 247 248 249 249 250 250 251 251 251 252 253 253 254 255 256 257 258 258 260 261 261 262 263 264 266 268 271 274 275 278 281
265 263 260 258 255 252 250 249 248 246 246 246 247 249 249 250 250 250 250 250 251 251 252 252 253 254 255 256 257 258 259 260 261 261 261 263 264 267 270 273 275 276 279
266 263 260 257 255 252 251 250 249 247 246 246 247 248 249 250 250 250 250 250 250 250 251 252 252 253 254 255 256 257 258 259 261 260 260 261 263 266 269 273 275 275 277
268 265 261 258 255 252 252 251 250 248 247 247 248 248 249 249 250 251 250 250 251 250 250 250 251 252 253 254 255 256 257 258 259 260 260 261 262 265 268 272 274 274 276
270 267 263 260 257 254 254 253 251 249 247 248 249 249 248 248 249 250 250 250 250 250 251 250 251 251 252 253 254 254 255 256 257 258 259 260 262 264 267 271 273 274 276
269 267 265 262 260 258 257 254 251 250 249 249 249 249 249 248 249 249 249 249 249 250 251 251 251 250 251 252 252 253 254 255 256 258 259 259 262 264 266 268 271 273 275
271 269 267 264 264 261 259 256 252 251 250 249 249 248 249 248 248 248 248 249 249 249 250 251 251 251 251 251 251 252 252 253 254 256 257 258 260 262 264 267 270 273 273
274 272 270 267 267 264 261 257 254 252 251 251 251 249 248 247 248 248 248 249 249 249 250 251 252 251 251 250 249 250 250 251 252 254 255 257 258 260 263 266 269 272 272
280 277 274 271 269 265 263 259 255 253 252 253 251 249 248 249 250 250 250 249 249 250 250 250 251 251 251 249 248 248 248 249 250 252 253 255 257 259 262 265 267 270 272
283 281 278 274 270 267 265 263 258 256 255 255 253 251 251 251 251 251 251 250 250 250 251 251 250 250 250 249 247 246 246 247 248 250 252 255 256 258 261 264 267 269 271
286 284 281 276 272 268 267 266 262 259 257 255 254 253 252 252 253 254 253 251 251 250 250 250 250 248 248 248 246 245 244 245 246 248 250 253 255 257 259 262 264 267 269
Height
5852 5852 5853 5854 5855 5856 5857 5857 5858 5859 5860 5860 5861 5861 5862 5863 5863 5864 5864 5864 5864 5864 5864 5864 5864 5864 5864 5863 5863 5863 5862 5862 5861 5860 5859 5859 5858 5857 5856 5855 5854 5852 5851
5848 5849 5850 5850 5851 5852 5853 5854 5855 5856 5856 5857 5858 5858 5859 5860 5860 5861 5861 5861 5861 5861 5862 5862 5862 5861 5861 5861 5861 5861 5860 5860 5859 5858 5858 5857 5856 5855 5854 5853 5852 5851 5849
5844 5844 5845 5846 5847 5848 5849 5850 5851 5852 5853 5853 5854 5855 5856 5856 5857 5857 5858 5858 5858 5859 5859 5859 5859 5859 5859 5859 5858 5858 5858 5857 5857 5856 5856 5855 5854 5853 5852 5851 5850 5848 5847
5839 5840 5841 5842 5843 5844 5845 5846 5847 5848 5849 5849 5850 5851 5852 5853 5853 5854 5854 5855 5855 5855 5856 5856 5856 5856 5856 5856 5856 5855 5855 5855 5854 5854 5853 5853 5852 5851 5850 5849 5847 5846 5845
5833 5834 5835 5836 5838 5839 5840 5841 5842 5843 5844 5845 5846 5847 5848 5849 5849 5850 5851 5851 5852 5852 5852 5853 5853 5853 5853 5853 5852 5852 5852 5852 5851 5851 5850 5850 5849 5848 5847 5846 5845 5844 5842
5827 5828 5830 5831 5832 5833 5835 5836 5837 5838 5839 5840 5841 5842 5843 5844 5845 5846 5846 5847 5848 5848 5849 5849 5849 5849 5849 5849 5849 5849 5849 5849 5848 5848 5847 5847 5846 5846 5845 5844 5842 5841 5839
5820 5821 5823 5824 5826 5827 5828 5830 5831 5832 5834 5835 5836 5837 5838 5839 5840 5841 5842 5842 5843 5844 5844 5845 5845 5845 5845 5846 5845 5845 5845 5845 5845 5844 5844 5844 5843 5843 5842 5841 5839 5838 5836
5813 5814 5815 5817 5818 5820 5821 5823 5824 5826 5827 5829 5830 5831 5833 5834 5835 5836 5837 5837 5838 5839 5839 5840 5841 5841 5841 5841 5842 5842 5841 5841 5841 5841 5840 5840 5840 5839 5838 5837 5836 5835 5833
5804 5805 5807 5808 5810 5811 5813 5815 5817 5819 5820 5822 5823 5825 5826 5828 5829 5830 5831 5832 5833 5834 5834 5835 5836 5836 5837 5837 5837 5837 5837 5837 5837 5836 5836 5836 5836 5835 5835 5834 5833 5831 5829
5794 5796 5798 5799 5801 5803 5805 5807 5809 5811 5813 5814 5816 5818 5820 5821 5822 5824 5825 5826 5827 5828 5829 5830 5830 5831 5831 5832 5832 5832 5832 5832 5832 5832 5832 5832 5831 5831 5830 5829 5829 5827 5825
5784 5785 5787 5789 5791 5793 5795 5797 5800 5802 5804 5806 5808 5810 5812 5813 5815 5817 5818 5820 5821 5822 5823 5824 5824 5825 5825 5826 5826 5827 5827 5827 5827 5827 5827 5827 5827 5826 5826 5825 5824 5823 5821
5773 5774 5776 5778 5780 5782 5784 5787 5790 5792 5795 5797 5799 5801 5803 5805 5807 5809 5811 5812 5814 5815 5816 5817 5818 5819 5819 5820 5820 5821 5821 5821 5822 5822 5821 5822 5822 5821 5821 5820 5819 5818 5816
5761 5762 5763 5766 5768 5770 5773 5776 5778 5782 5785 5787 5790 5792 5794 5797 5799 5801 5803 5805 5806 5808 5809 5810 5811 5812 5813 5813 5814 5815 5815 5816 5816 5816 5816 5816 5816 5816 5816 5815 5814 5813 5811
5750 5750 5751 5752 5754 5757 5760 5764 5766 5770 5774 5777 5780 5782 5785 5787 5790 5792 5794 5796 5798 5800 5802 5803 5804 5805 5805 5806 5807 5808 5809 5810 5810 5810 5811 5810 5810 5810 5810 5809 5808 5807 5806
5737 5738 5738 5739 5741 5743 5747 5750 5754 5758 5762 5765 5769 5772 5775 5777 5780 5783 5785 5787 5789 5791 5793 5795 5796 5797 5798 5799 5800 5801 5802 5803 5803 5804 5804 5804 5804 5804 5804 5803 5802 5801 5800
5725 5725 5725 5725 5726 5729 5733 5737 5740 5745 5749 5753 5757 5761 5764 5767 5770 5772 5775 5777 5779 5782 5784 5786 5787 5789 5790 5791 5793 5794 5795 5796 5796 5797 5797 5798 5798 5798 5797 5797 5796 5795 5794
5712 5711 5711 5712 5713 5716 5720 5723 5727 5731 5736 5740 5744 5748 5751 5754 5758 5761 5764 5766 5769 5771 5774 5776 5778 5780 5781 5783 5784 5786 5787 5788 5788 5789 5790 5790 5790 5790 5790 5790 5789 5789 5788
5699 5698 5699 5700 5701 5703 5707 5710 5713 5717 5722 5726 5730 5734 5738 5742 5744 5748 5751 5755 5757 5760 5763 5765 5767 5769 5772 5774 5775 5777 5778 5780 5780 5781 5782 5782 5783 5783 5783 5783 5782 5781 5781
5686 5686 5686 5687 5689 5691 5694 5697 5700 5703 5708 5712 5716 5720 5725 5728 5731 5734 5738 5742 5745 5747 5751 5753 5756 5758 5761 5763 5765 5767 5769 5771 5772 5773 5773 5774 5775 5776 5775 5775 5775 5774 5773
5674 5674 5675 5675 5677 5679 5681 5683 5686 5689 5693 5697 5701 5705 5710 5713 5717 5720 5724 5728 5731 5734 5738 5741 5744 5746 5749 5752 5754 5757 5759 5761 5762 5764 5765 5766 5767 5768 5768 5767 5767 5766 5766
5664 5664 5664 5665 5666 5667 5668 5670 5673 5676 5679 5682 5686 5690 5694 5698 5702 5706 5710 5714 5717 5721 5725 5728 5731 5734 5736 5739 5742 5745 5748 5750 5752 5754 5756 5757 5758 5759 5759 5759 5759 5759 5758
5654 5654 5653 5654 5654 5655 5656 5657 5659 5662 5665 5668 5671 5675 5678 5682 5686 5690 5695 5699 5703 5707 5711 5714 5717 5720 5723 5727 5730 5732 5736 5739 5741 5744 5746 5748 5749 5750 5751 5751 5751 5751 5750
5644 5643 5642 5642 5642 5642 5643 5644 5646 5648 5651 5653 5656 5660 5663 5667 5670 5675 5679 5683 5687 5692 5696 5700 5703 5706 5710 5713 5716 5720 5724 5728 5731 5733 5736 5738 5740 5741 5742 5743 5743 5742 5742
5634 5632 5631 5630 5630 5630 5630 5632 5634 5636 5639 5641 5643 5647 5650 5652 5656 5660 5664 5667 5671 5676 5680 5684 5687 5691 5694 5698 5702 5707 5711 5715 5719 5722 5725 5728 5730 5732 5733 5734 5734 5734 5733
5624 5622 5620 5619 5618 5618 5619 5619 5621 5623 5626 5628 5630 5633 5636 5639 5642 5645 5649 5652 5656 5660 5665 5669 5672 5676 5679 5684 5688 5693 5697 5702 5706 5711 5715 5718 5720 5722 5724 5725 5725 5725 5725
5616 5613 5611 5609 5608 5607 5607 5606 5608 5610 5612 5614 5617 5620 5623 5626 5629 5632 5634 5637 5641 5645 5649 5654 5657 5661 5665 5669 5673 5678 5684 5689 5694 5699 5703 5707 5709 5712 5714 5715 5716 5716 5716